Wind_Speed
26 27 28 29 29 29 28 28 28 28 27 26 25 25 24 22 20 20 21 22 22 22 21 19 17 15 12 10 8 6 4 3 2 1 1 1 1 1 0 1 2 3 3 3 3 3 5 7 8 8 8 8 7 6 5 4 4 4 4 4 5 5 5 5 5 5 4 3 3 3 3 3 4 5 7 8 9 10 12 14 15 16 17 17 19
25 27 28 28 29 29 29 29 29 29 28 27 27 27 25 24 22 22 23 23 23 23 21 19 17 14 12 9 7 6 5 5 4 4 3 3 2 3 2 2 2 2 3 2 1 1 2 4 7 7 7 7 7 6 5 5 5 5 5 5 4 4 4 4 3 3 3 3 3 3 4 5 6 7 8 9 10 12 14 15 17 18 19 20 21
26 28 28 28 30 30 31 31 30 29 28 28 28 28 27 26 24 24 25 25 25 24 22 20 17 14 11 9 8 8 7 7 7 6 5 4 4 4 4 4 3 3 4 3 3 3 2 2 5 7 8 7 7 6 6 6 6 5 5 5 5 4 4 3 3 3 3 3 3 4 5 7 8 9 10 11 13 14 16 18 20 21 23 24 24
27 28 28 29 30 31 31 31 31 29 28 28 29 29 28 27 25 26 26 26 26 25 23 20 17 14 12 11 10 10 10 9 9 8 7 6 5 5 5 5 5 5 5 5 5 5 5 4 4 7 9 8 8 7 6 6 6 5 5 5 5 5 4 4 3 2 3 3 3 3 5 6 9 11 13 13 14 16 18 20 22 24 25 27 27
27 28 28 29 29 30 31 31 31 30 29 29 30 30 29 28 26 27 27 27 27 26 23 21 18 15 14 13 12 12 11 10 10 9 7 6 6 6 7 7 7 7 7 7 7 7 7 7 5 6 9 10 9 8 7 6 5 5 5 5 5 4 4 3 3 3 4 5 6 7 9 10 12 15 18 18 18 20 22 23 25 26 27 28 29
28 29 29 28 28 28 29 30 31 30 30 30 31 31 30 29 28 28 28 28 28 26 24 21 19 17 16 15 14 14 12 11 10 9 8 7 7 8 9 10 10 9 9 9 9 9 9 8 7 7 9 10 10 9 8 6 6 5 5 5 4 3 3 2 2 2 3 5 7 10 12 15 16 18 21 23 23 24 25 26 28 30 31 31 31
29 29 29 28 27 27 28 30 31 31 32 31 32 32 31 30 29 28 28 29 28 27 24 22 20 19 18 17 16 15 13 12 11 10 9 9 9 10 11 12 12 11 11 11 10 10 10 9 8 9 10 10 10 9 8 7 7 6 6 5 4 3 2 1 0 1 3 5 7 9 11 14 16 18 21 24 26 27 28 28 29 31 33 33 34
29 30 29 27 26 26 28 30 32 33 33 33 32 32 32 31 30 29 29 29 28 27 26 24 22 21 20 19 18 16 14 12 11 11 11 11 11 11 12 12 13 13 13 12 12 11 11 10 10 10 11 11 11 10 10 9 8 7 6 6 5 4 3 2 3 4 6 7 9 11 12 14 16 19 21 24 26 28 30 30 30 32 35 37 38
30 30 29 27 26 27 29 30 32 34 34 33 33 32 33 32 31 30 29 29 29 28 27 25 23 22 21 20 18 16 14 13 13 13 13 12 12 12 12 12 13 14 14 14 13 13 13 12 11 11 11 11 11 11 10 9 9 8 7 6 5 4 4 5 7 8 10 11 12 13 14 15 17 19 21 23 26 28 29 31 34 38 42 42 41
31 30 29 28 28 29 30 31 32 34 34 33 33 32 33 33 32 31 30 30 30 29 27 25 24 23 22 21 19 17 15 14 15 15 15 14 13 12 12 13 13 14 15 15 15 15 15 14 12 12 12 12 12 10 9 9 9 8 7 6 6 5 6 8 10 11 13 13 15 16 16 16 19 21 22 24 27 29 31 35 40 43 44 44 42
31 31 31 30 31 31 31 31 32 33 34 34 34 33 33 34 33 32 32 31 31 29 28 26 25 25 24 22 20 18 16 16 16 17 16 15 14 14 14 14 14 15 15 15 16 16 16 15 14 13 13 13 12 10 9 9 9 8 7 7 7 7 8 10 12 14 14 14 16 18 18 19 21 23 25 28 31 33 35 38 42 43 42 42 41
31 32 33 34 33 32 31 31 32 34 34 34 34 34 34 34 34 33 33 32 31 30 29 28 27 27 24 22 20 18 18 18 18 18 18 17 16 15 15 15 15 16 15 15 16 16 16 15 14 14 14 13 12 10 10 9 9 8 7 8 9 9 10 12 14 15 16 16 17 19 21 22 23 26 30 34 38 40 38 39 42 43 41 42 41
32 33 35 35 35 33 33 33 33 34 35 35 35 35 34 34 34 34 34 33 32 31 30 29 28 27 24 22 20 19 19 19 19 19 18 18 17 17 16 16 16 16 16 15 16 16 16 16 15 15 15 14 12 12 11 10 10 9 8 9 11 12 13 14 16 17 17 17 18 19 22 25 27 31 36 39 42 44 41 38 41 43 43 44 45
33 35 35 36 35 35 34 34 34 34 35 35 35 34 34 34 35 34 34 33 32 31 30 30 28 26 24 22 21 20 20 20 20 19 19 19 18 17 17 17 17 17 16 15 15 16 16 16 16 16 16 15 14 13 13 12 11 10 10 11 13 14 15 16 18 18 18 19 19 20 24 29 32 37 41 43 46 47 43 39 39 43 45 46 48
34 35 36 36 35 35 34 34 34 35 35 35 34 33 33 34 35 35 34 33 32 32 31 30 27 25 24 23 22 21 21 21 20 20 19 19 19 18 17 17 17 17 16 16 16 16 16 16 17 17 16 15 14 14 13 13 12 12 12 14 15 16 17 18 19 20 20 22 22 24 27 33 37 40 42 44 47 49 47 43 42 44 45 46 47
35 35 36 35 35 34 33 34 34 34 34 33 32 32 32 33 34 34 34 33 32 31 30 28 26 26 24 23 21 21 22 22 21 20 20 19 19 18 18 18 18 17 16 16 16 16 16 17 18 17 16 15 15 15 14 13 13 14 15 17 17 18 19 21 22 22 23 24 26 29 33 37 39 40 42 43 46 49 49 47 47 48 48 49 49
35 36 35 34 33 33 33 33 33 33 32 31 30 30 31 31 32 32 32 32 31 29 28 27 27 26 24 22 22 23 24 23 22 22 21 20 19 18 18 19 19 17 17 16 17 17 16 17 18 18 17 17 16 15 14 13 14 16 18 19 19 21 22 24 24 24 24 26 29 32 36 38 39 39 40 42 44 47 49 50 51 52 52 53 53
35 35 35 34 33 33 33 33 32 32 30 30 29 30 30 30 30 30 30 30 29 28 27 27 26 25 24 23 23 24 25 25 23 23 22 20 20 19 19 19 19 18 17 17 17 17 17 17 18 18 18 17 17 16 15 15 16 18 19 20 21 23 25 25 24 24 26 29 32 33 35 38 39 39 39 41 44 47 50 51 52 53 54 54 54
34 34 34 34 34 33 33 32 32 31 30 29 29 29 29 29 29 29 29 28 28 27 27 26 25 24 24 24 25 25 26 26 25 23 22 21 21 21 20 20 19 19 19 19 18 18 18 18 19 18 18 18 17 16 16 17 18 19 20 22 24 26 27 27 25 25 26 30 33 33 34 37 39 39 39 41 44 46 50 51 52 53 54 54 54
34 34 34 35 34 34 33 32 31 30 29 29 29 29 29 28 28 27 27 27 27 26 26 25 25 25 25 25 26 26 27 27 26 25 24 23 22 21 21 20 20 20 20 20 19 19 19 19 19 19 19 18 17 18 18 19 20 20 22 24 26 28 28 28 28 26 25 28 32 34 35 38 41 41 42 43 45 47 50 51 52 54 54 54 54
35 36 36 35 34 33 32 31 30 30 29 29 29 28 28 27 26 26 26 26 26 26 26 26 26 26 26 27 27 27 27 28 27 26 26 24 23 22 21 20 21 22 21 20 20 20 20 21 21 21 20 19 19 19 20 20 21 21 23 26 28 29 29 29 30 30 28 30 33 34 36 39 42 43 44 45 46 48 50 51 53 54 55 55 55
36 36 36 35 33 32 31 30 30 29 29 29 28 27 26 26 26 26 26 26 26 26 26 26 26 27 27 27 27 27 28 28 28 28 27 26 24 23 21 21 23 23 21 21 21 21 22 23 22 21 21 20 20 20 20 21 22 23 25 28 29 30 30 31 32 33 34 35 35 36 38 40 42 44 45 46 47 49 50 51 52 54 55 55 54
35 35 34 33 32 31 30 30 29 29 28 28 27 27 27 26 25 25 25 25 25 25 25 25 25 25 26 26 26 27 28 28 29 29 28 27 25 24 22 23 24 23 22 21 22 23 24 24 23 22 22 22 22 22 22 22 24 26 27 29 30 30 31 32 33 36 38 38 38 39 41 43 44 46 47 47 48 49 50 51 52 54 54 55 54
33 32 31 31 31 30 30 30 29 29 28 28 28 28 27 26 26 25 25 25 24 24 24 24 24 24 24 24 25 26 27 28 29 29 29 28 26 25 24 24 24 24 23 23 24 24 25 24 24 24 24 23 23 23 23 25 27 28 29 30 31 31 31 33 35 38 39 39 40 41 44 46 47 48 49 49 50 51 51 52 53 54 54 54 54
32 31 30 31 31 31 32 31 31 30 30 29 29 29 28 27 26 26 25 25 24 23 23 23 23 23 23 24 25 26 26 27 28 29 29 28 26 25 26 26 26 25 24 24 25 26 25 25 25 25 25 24 24 25 26 27 29 30 31 31 31 31 33 35 37 39 39 40 42 44 46 48 50 51 51 51 51 52 52 53 54 54 55 54 54
34 33 33 33 33 33 33 33 32 32 32 31 31 30 30 29 28 27 26 26 25 24 23 23 23 23 24 25 25 26 26 26 27 28 29 29 27 26 27 28 27 26 25 25 26 27 27 27 27 26 26 26 26 27 29 30 31 32 32 32 32 33 35 37 38 39 40 42 44 46 48 50 52 53 53 52 52 53 53 54 55 56 56 55 54
36 36 36 36 36 36 35 34 34 34 34 33 33 33 32 31 30 29 28 27 26 25 25 24 24 24 24 25 26 26 26 26 26 27 28 29 28 28 28 28 28 27 26 26 28 30 30 29 28 28 28 28 29 31 31 32 33 32 33 33 34 35 36 38 39 41 42 43 45 47 50 52 54 54 54 53 53 54 54 56 57 57 57 57 56
40 40 40 40 40 39 37 36 36 35 34 35 35 35 34 33 32 31 31 30 29 28 27 26 25 25 25 26 26 26 26 25 25 26 27 29 29 28 27 27 28 27 27 28 30 32 32 32 31 31 31 31 32 33 34 34 34 33 34 35 36 37 38 39 41 43 44 45 46 48 51 54 56 56 55 54 54 54 55 57 58 58 59 59 58
43 43 43 42 42 42 40 39 38 37 36 36 36 36 36 36 35 34 34 33 32 31 30 29 29 29 28 27 26 25 24 23 24 24 25 26 27 26 27 28 29 29 29 30 32 32 33 33 33 32 33 34 34 35 35 35 35 35 35 37 38 39 40 41 43 44 45 46 48 49 52 55 57 57 56 55 55 55 56 58 59 59 60 60 60
46 46 45 44 44 44 43 42 41 40 39 38 37 37 38 37 37 37 37 36 35 34 33 32 33 33 32 30 29 28 26 25 25 24 23 24 25 26 28 30 31 32 32 32 33 33 34 34 34 35 35 36 36 37 37 36 36 37 38 38 39 40 42 43 45 46 46 48 50 51 53 57 58 57 56 56 56 56 57 59 60 60 60 61 61
44 45 44 44 46 46 46 45 44 44 43 42 41 40 40 39 39 38 38 38 38 37 36 35 36 36 35 34 34 34 32 31 29 26 25 26 28 28 30 31 32 33 34 34 34 34 34 35 35 36 37 37 37 38 38 38 38 39 39 40 41 42 44 46 47 48 49 51 52 52 54 58 59 58 57 56 56 57 58 60 61 61 61 61 62
44 44 44 45 46 48 48 48 48 47 47 46 45 44 43 42 41 41 40 39 39 39 38 38 38 39 38 38 39 38 37 35 33 30 29 30 30 31 32 33 33 34 35 35 35 35 35 36 37 37 38 39 39 40 40 40 41 41 41 42 43 45 47 48 49 50 52 53 53 53 56 59 59 59 58 57 56 57 59 61 62 62 62 62 62
45 46 47 47 48 49 50 50 50 50 49 48 47 48 48 46 44 43 42 42 41 41 41 40 40 40 40 40 40 39 37 35 34 33 33 33 33 33 34 35 35 36 36 37 37 38 38 38 39 39 40 41 42 42 42 42 43 43 44 45 46 47 49 50 51 53 54 55 54 55 58 59 59 59 58 57 57 58 60 61 62 62 63 63 62
46 47 48 49 50 50 51 51 50 50 50 48 47 47 48 48 46 45 45 45 44 44 44 43 43 42 42 41 40 39 38 36 35 35 35 35 36 36 36 37 37 38 38 38 39 40 41 41 42 42 43 43 44 44 44 45 46 46 47 48 49 50 51 52 53 54 54 54 55 57 59 59 59 58 57 57 58 59 60 61 61 62 62 62 62
45 46 47 48 49 50 51 51 50 49 49 48 46 45 46 47 47 47 47 47 47 47 47 46 46 45 45 44 43 42 41 40 39 38 38 38 38 38 39 39 39 39 38 39 41 42 43 43 43 43 44 45 46 46 46 47 48 49 50 51 52 52 53 53 53 53 53 55 57 59 60 59 58 58 57 58 58 59 61 62 61 61 61 61 61
43 44 45 46 47 48 49 49 49 48 48 48 47 46 46 47 47 48 48 48 49 49 49 48 48 47 47 46 45 45 44 45 45 45 45 44 44 43 43 43 42 41 40 41 43 44 44 43 43 45 46 46 46 47 47 48 49 50 53 54 54 53 52 51 52 54 56 58 59 59 59 59 58 57 57 58 59 60 62 62 61 61 60 60 59
41 41 42 42 43 44 44 44 44 45 45 46 47 46 46 47 47 48 48 48 49 49 49 48 48 47 46 45 44 44 44 45 46 47 48 48 48 48 49 48 46 45 43 43 44 46 45 44 45 47 47 46 45 45 47 49 51 53 54 54 52 51 51 51 53 56 58 58 58 58 59 59 58 58 58 59 60 61 62 62 61 61 60 59 58
40 40 40 39 39 39 39 39 39 39 40 41 42 42 42 42 43 43 44 44 45 45 45 45 45 44 44 43 42 41 41 42 42 44 46 47 47 49 51 52 52 50 48 45 45 46 46 45 45 46 46 46 46 47 49 52 54 55 54 52 51 51 52 53 55 57 58 58 58 59 59 58 58 58 59 60 61 62 62 62 61 61 61 59 58
37 38 38 37 36 36 36 36 36 36 36 36 36 36 37 37 38 38 38 39 39 39 39 40 40 40 41 40 39 39 39 39 41 43 44 45 45 47 49 50 51 50 48 46 45 46 47 47 48 49 49 50 51 52 53 54 55 55 54 53 52 53 54 55 57 58 58 58 59 59 59 59 59 59 60 61 62 63 62 62 61 61 61 60 58
36 35 36 36 36 35 35 35 35 35 35 34 34 34 35 35 36 36 36 36 36 36 37 38 39 39 39 39 38 39 39 41 43 45 45 43 43 42 41 40 41 43 44 45 45 45 46 47 48 50 52 53 53 53 53 53 53 52 52 52 53 54 56 57 58 58 58 59 59 59 59 59 59 60 61 62 63 63 62 62 62 62 61 61 59
36 35 34 34 35 35 35 36 36 35 35 35 35 35 36 36 36 36 36 37 36 36 37 39 39 39 38 38 39 40 41 41 44 45 42 40 39 39 38 38 40 41 42 43 43 42 42 43 43 45 46 47 47 47 47 48 48 49 50 52 54 56 57 57 58 58 59 59 59 59 59 60 60 61 62 63 63 62 62 62 62 62 62 61 60
37 35 34 33 34 35 35 36 37 37 37 37 36 37 37 37 37 37 38 38 38 38 39 39 39 39 39 40 40 42 43 44 46 47 44 42 41 40 40 40 41 41 40 40 40 40 41 42 43 44 44 45 45 46 47 49 50 50 52 54 55 56 57 58 58 59 59 59 59 60 60 61 61 62 63 63 63 62 62 62 62 62 62 61 59
38 38 36 34 34 34 35 36 38 38 39 39 39 38 39 39 39 39 39 40 40 40 41 41 41 41 42 41 40 41 42 41 41 41 41 41 41 41 41 41 41 40 41 42 43 44 45 46 46 47 48 49 50 50 51 51 52 53 54 55 56 57 58 58 59 59 59 60 60 60 61 62 62 63 63 63 62 62 62 62 62 62 62 61 59
39 40 38 36 35 34 34 35 37 39 40 41 41 41 40 41 41 41 41 41 41 42 42 42 42 43 42 40 39 41 41 37 33 32 34 36 38 41 43 43 43 42 42 42 43 45 47 48 49 50 51 51 52 52 52 52 53 54 55 56 57 58 58 59 59 60 60 60 61 61 62 62 63 63 63 63 62 62 63 63 63 62 62 61 59
41 42 41 39 36 34 33 34 36 38 40 41 42 42 42 42 42 41 41 42 42 43 43 44 44 43 43 41 40 41 43 43 41 39 37 37 39 41 42 43 44 44 45 46 48 49 50 51 51 52 52 52 52 53 53 54 55 55 56 57 58 59 60 60 60 61 61 61 62 62 63 63 63 63 63 63 63 64 64 64 64 63 63 62 60
43 44 43 42 39 37 34 33 34 36 39 41 41 42 42 42 42 42 42 42 42 43 44 45 46 45 45 44 44 44 46 48 48 45 42 42 43 44 45 46 46 46 47 47 49 50 51 52 53 54 54 53 53 54 55 55 56 57 58 59 60 61 61 61 62 62 62 62 63 63 63 63 63 64 64 64 65 66 67 66 65 64 63 62 60
46 45 45 45 43 41 38 36 35 35 37 39 41 41 41 41 41 41 41 42 42 42 43 45 46 46 45 45 46 46 48 48 48 46 45 45 47 48 49 50 51 51 51 51 52 53 54 55 56 56 56 56 56 57 57 58 59 60 60 61 62 62 62 63 63 63 63 63 63 63 64 64 64 65 66 67 69 69 68 67 65 64 62 61 60
50 48 47 47 47 45 42 40 38 37 38 39 41 41 40 40 40 39 39 39 40 41 42 42 43 44 45 45 46 46 47 47 47 47 47 47 48 49 50 51 52 52 53 54 56 57 57 57 57 57 57 58 58 59 59 60 61 62 62 63 63 64 64 64 64 64 64 63 63 64 64 65 66 68 70 71 71 70 67 65 62 60 59 58 58
52 50 48 48 47 46 45 44 42 41 41 42 43 42 41 40 39 39 39 39 39 39 40 41 42 43 45 46 47 48 48 49 49 49 49 49 50 51 52 53 54 55 55 57 58 58 58 58 58 59 59 60 61 62 62 63 63 63 64 64 65 65 65 65 65 65 64 64 64 64 65 67 69 71 72 72 70 66 63 61 59 58 57 57 58
53 50 48 47 46 46 46 46 45 45 44 45 46 45 43 41 39 39 39 39 39 40 41 42 43 44 45 46 47 48 49 50 51 52 52 53 54 55 56 57 58 58 59 60 60 60 61 61 61 62 63 63 64 64 65 65 65 65 66 66 66 66 66 66 66 65 64 64 65 66 68 70 72 72 70 68 65 62 60 59 59 59 59 59 60
53 51 48 46 46 45 45 46 46 46 45 47 47 46 43 41 39 39 39 40 41 42 43 44 45 47 48 49 50 51 53 54 55 56 57 57 58 59 60 61 61 61 61 61 62 62 62 63 63 64 64 64 64 65 65 65 66 67 67 66 66 66 66 66 66 65 65 66 67 69 71 71 70 68 65 63 61 60 60 61 61 61 61 61 60
Wind_Direction
207 205 204 204 203 203 203 203 205 206 204 200 196 195 195 194 191 188 185 182 179 176 174 172 171 170 171 175 180 187 194 202 210 216 229 257 291 283 269 159 150 150 149 128 102 119 161 173 177 180 186 191 194 199 200 196 194 193 183 173 163 153 145 140 133 127 121 113 109 98 74 52 39 24 14 9 5 0 354 348 343 340 339 339 339
208 209 208 207 206 206 205 206 207 208 206 201 198 197 196 194 191 188 186 184 181 180 179 178 176 177 181 188 195 206 218 229 238 245 248 253 258 261 265 253 219 198 197 195 174 110 146 181 187 186 187 193 197 200 196 189 185 183 177 169 162 154 143 134 122 109 98 79 65 54 39 27 22 15 4 357 354 352 346 339 335 333 331 332 333
207 210 210 209 208 208 208 208 209 209 207 203 200 199 198 196 192 188 186 186 184 184 184 183 182 185 191 202 212 222 229 233 239 246 250 252 252 253 256 255 246 236 231 226 229 243 253 217 204 197 195 195 198 199 189 181 177 173 166 160 154 147 138 130 112 93 78 62 48 33 20 7 359 355 349 344 341 340 337 332 328 327 326 326 326
207 210 212 212 211 210 209 210 210 210 209 205 202 202 201 198 193 189 188 187 186 187 187 186 187 193 203 215 224 231 234 234 237 244 249 249 248 250 254 253 247 244 242 235 234 246 256 256 234 213 206 202 201 199 190 181 177 171 164 154 148 143 138 132 110 80 54 41 32 17 6 354 345 338 333 331 332 331 329 324 320 321 321 320 319
207 209 212 215 214 211 210 211 212 212 210 208 204 204 203 201 196 192 191 189 189 190 190 189 192 201 214 223 230 235 239 239 242 244 245 245 246 248 251 250 245 242 245 241 236 243 252 259 256 230 216 211 207 201 193 185 177 172 167 156 149 142 133 119 92 52 19 1 351 344 341 341 342 335 326 326 329 327 323 319 318 318 316 315 317
207 208 211 215 215 213 211 211 212 212 212 210 207 205 205 203 199 196 193 192 191 192 192 193 199 209 219 227 233 239 243 246 247 245 239 238 242 245 246 249 248 246 246 246 241 242 250 256 254 238 225 217 212 206 197 187 181 179 177 171 165 154 141 128 95 41 7 349 338 333 331 333 335 330 323 323 325 324 320 318 318 316 315 316 316
208 208 210 213 214 212 210 210 211 212 213 213 210 207 206 204 202 199 197 195 194 195 196 199 206 214 222 229 235 240 244 249 250 246 240 236 238 242 245 249 253 253 252 252 248 247 249 250 244 236 230 222 215 209 201 194 190 188 186 185 187 187 188 192 249 330 335 336 331 325 324 325 325 321 316 316 320 319 316 315 316 315 314 313 311
209 209 210 211 211 210 209 209 210 211 212 214 213 209 207 206 204 202 200 198 198 199 200 204 210 216 223 231 236 240 246 249 248 243 241 243 246 248 250 252 256 259 260 258 254 251 250 248 240 233 230 226 218 209 206 203 198 194 195 199 209 221 240 274 300 310 321 330 327 322 324 324 319 314 312 314 315 313 311 314 317 317 315 314 315
209 209 209 209 208 208 208 209 210 211 212 214 214 212 209 208 207 205 203 201 201 202 204 208 213 219 225 232 238 243 247 245 241 240 243 248 254 259 260 259 259 260 261 260 256 252 250 248 240 232 228 227 223 215 211 209 205 203 207 218 234 254 280 302 312 319 326 329 326 323 325 323 315 311 312 312 309 308 311 318 322 322 322 325 328
210 209 208 208 208 208 208 208 210 211 213 214 215 214 211 210 209 207 205 204 205 206 207 210 216 222 228 234 240 245 246 240 238 243 248 253 259 264 265 263 261 260 259 258 255 252 250 249 242 232 225 224 225 222 216 211 211 215 225 242 262 282 302 312 317 322 325 328 325 321 322 320 316 314 314 310 307 310 317 324 326 326 327 329 331
212 210 208 208 208 208 208 208 209 210 212 214 215 214 212 211 210 209 208 208 208 210 211 214 220 225 230 236 241 243 240 236 238 246 253 258 262 265 267 266 265 263 260 256 252 250 250 250 246 236 227 226 227 226 221 218 221 230 245 267 283 297 306 311 315 318 321 324 323 322 322 322 319 317 315 312 312 316 322 327 327 327 326 325 326
214 212 211 211 210 210 209 209 210 211 212 214 214 213 212 211 210 210 210 211 211 213 215 218 223 227 232 236 239 237 235 236 241 247 252 256 258 262 266 268 267 266 262 256 251 247 246 247 245 235 228 228 228 226 226 229 235 243 259 278 291 299 305 310 313 315 318 321 323 323 322 321 322 320 318 318 318 319 325 328 325 323 323 323 324
216 214 214 214 213 212 211 210 211 211 212 213 213 212 211 209 210 211 212 213 214 216 218 221 225 230 233 235 235 232 233 238 244 248 251 253 255 257 262 265 266 266 264 256 248 245 244 242 236 228 225 228 228 228 233 240 247 257 272 285 293 299 306 312 314 315 318 320 323 326 324 323 325 324 324 325 324 324 328 330 325 323 326 328 329
218 217 217 216 215 214 213 211 212 213 213 214 213 212 210 209 210 212 213 215 217 219 221 225 229 232 233 232 230 230 234 240 245 248 250 252 253 255 259 262 263 263 261 253 245 242 241 236 230 225 225 226 229 234 242 251 260 270 281 288 293 299 307 314 315 316 319 321 325 330 328 325 325 326 328 329 327 326 329 331 328 327 330 332 332
220 218 218 218 217 216 214 213 213 214 215 215 214 212 211 211 212 213 214 217 219 222 225 228 231 233 232 230 229 232 237 241 244 247 249 251 252 254 258 261 261 260 256 248 240 236 234 231 228 227 227 229 235 244 253 261 271 280 287 292 296 303 311 317 318 319 322 324 327 331 329 326 326 329 331 329 325 325 328 330 331 330 330 331 330
221 219 218 218 217 216 215 214 215 215 216 216 215 213 213 214 215 215 217 219 222 225 228 230 232 232 230 229 231 235 240 242 245 248 249 250 252 254 257 259 259 257 252 244 236 233 231 229 229 230 231 234 242 253 262 271 280 286 290 294 300 309 316 319 321 323 324 325 327 330 329 328 329 330 328 325 323 324 326 329 331 331 332 332 331
221 218 217 216 215 214 214 214 215 216 216 216 215 216 216 217 218 218 220 222 225 227 228 229 229 228 227 228 231 236 241 243 246 248 250 252 252 253 256 258 257 256 251 242 236 235 232 230 231 233 235 240 250 261 270 277 283 286 291 297 305 313 315 316 320 323 323 324 327 330 330 329 329 327 324 322 321 321 324 328 331 333 334 335 334
220 217 215 213 213 212 212 213 214 214 215 215 216 217 219 220 221 221 222 224 226 227 228 227 227 226 225 227 231 236 242 245 246 249 252 254 254 254 255 257 257 253 248 242 239 238 236 235 235 236 239 247 257 266 272 277 281 286 293 300 307 310 310 313 319 323 324 325 325 327 327 325 323 321 320 319 319 321 325 329 332 334 335 335 334
217 214 213 211 211 211 211 212 213 213 213 215 217 219 221 222 223 223 224 226 227 228 228 228 227 226 226 228 231 237 242 246 247 249 252 253 253 253 255 256 254 250 246 244 244 244 243 241 240 241 244 252 261 266 271 276 282 289 296 301 305 306 307 312 318 322 324 323 321 322 323 320 316 316 317 317 318 322 326 329 331 333 334 335 334
215 211 210 210 209 210 210 211 212 212 213 215 217 219 221 222 223 223 224 226 226 227 227 227 227 228 229 231 235 239 243 247 248 250 251 253 253 253 254 254 250 246 245 248 250 249 248 246 243 243 248 254 260 266 273 279 285 291 297 300 301 303 307 312 315 317 320 319 316 317 318 315 312 313 315 317 319 322 325 328 331 333 334 335 335
213 211 210 209 208 208 209 210 210 210 211 213 214 216 218 219 220 220 220 221 222 224 225 226 228 230 232 235 238 241 245 248 250 251 253 254 254 253 252 250 245 244 246 250 252 251 249 246 244 246 251 255 260 267 274 281 286 291 295 297 299 302 307 310 312 313 315 314 312 312 313 311 311 313 314 316 319 322 325 329 331 332 334 336 336
213 212 209 208 207 207 207 207 207 208 209 210 212 213 215 216 216 217 218 220 221 223 225 227 230 233 236 238 241 243 246 248 251 253 255 256 255 253 250 246 244 244 247 251 251 249 248 248 248 250 253 255 260 267 274 280 286 289 291 293 297 301 305 309 311 312 312 312 311 311 311 311 312 313 314 316 319 323 326 330 332 333 334 335 335
212 210 208 206 204 203 203 203 203 205 206 207 208 209 211 213 214 216 219 221 223 225 228 230 233 237 240 243 244 246 247 248 250 253 255 256 255 252 248 245 244 245 247 248 249 249 250 250 250 252 255 257 262 268 274 279 283 286 289 292 296 300 305 308 309 309 309 311 312 312 313 313 314 315 315 317 319 323 328 331 332 333 334 335 335
212 208 205 202 200 199 200 201 201 203 204 205 207 209 210 212 214 217 220 222 225 227 230 233 236 240 243 247 249 250 250 250 251 253 254 254 254 251 247 244 243 244 246 247 250 251 251 251 251 253 257 260 264 269 274 278 282 285 288 291 295 300 305 306 306 306 307 310 312 313 314 315 316 317 317 318 321 325 328 331 332 332 333 335 335
208 205 202 200 199 200 201 202 203 204 205 206 208 210 212 213 216 219 222 225 227 230 234 237 240 243 247 250 252 254 254 254 254 254 254 254 253 249 246 243 242 243 244 247 250 251 250 250 252 254 258 261 265 270 273 277 281 284 287 290 295 300 301 301 301 303 306 309 311 313 314 315 317 318 317 318 322 326 328 331 332 332 333 334 335
207 205 203 202 202 203 204 205 206 207 208 209 210 213 214 216 217 220 223 227 229 232 235 240 245 249 252 254 256 257 258 258 257 255 254 254 252 248 245 243 242 242 243 247 249 249 248 249 251 254 258 262 266 269 273 276 280 283 286 290 293 296 296 297 300 303 306 308 310 312 313 315 317 318 317 318 322 325 328 330 331 332 332 333 333
208 208 208 207 207 207 209 210 211 212 213 214 215 216 218 219 221 223 225 228 231 234 237 240 246 251 254 256 258 260 261 261 260 257 254 252 251 248 245 243 243 244 245 247 249 248 247 248 250 254 259 263 267 270 273 277 280 283 286 289 292 293 295 297 300 302 305 307 308 309 311 314 316 316 316 318 322 325 328 330 330 330 331 331 332
210 212 212 212 211 212 214 216 217 219 219 219 220 221 221 223 225 227 228 230 233 235 237 240 244 247 250 254 258 261 263 265 264 261 256 252 251 251 248 246 245 247 249 250 251 250 250 250 252 256 261 264 268 271 274 278 282 285 286 288 291 293 295 297 299 301 303 305 306 307 309 312 314 315 316 318 321 324 327 329 329 329 330 330 331
213 215 216 217 216 216 218 220 222 224 225 226 226 227 227 227 228 230 232 234 235 236 237 240 242 245 246 248 252 257 261 264 266 265 262 258 254 253 251 249 248 249 251 252 252 252 252 253 255 259 263 266 269 273 276 280 284 286 286 286 288 291 294 295 297 299 302 304 304 304 306 309 312 314 315 318 321 324 327 328 328 328 328 329 329
218 219 219 220 221 222 222 224 225 227 229 230 231 233 233 232 232 233 235 237 238 238 238 239 241 245 247 248 251 255 258 259 260 263 264 263 259 254 251 249 249 250 252 252 252 252 253 255 258 261 265 268 272 275 279 281 284 285 285 285 287 290 292 294 296 298 301 302 302 301 303 307 311 313 315 317 320 323 325 326 327 327 327 328 328
228 228 226 224 225 226 226 227 228 229 231 233 235 237 238 237 237 237 238 240 241 242 241 240 241 245 248 250 253 257 259 259 259 258 257 258 258 256 254 253 252 253 254 254 255 255 256 258 260 264 268 271 274 276 279 281 282 283 284 285 287 290 291 293 295 296 299 300 299 298 302 307 310 312 314 317 320 322 324 325 326 326 326 327 327
233 235 234 231 230 230 230 230 231 232 234 235 236 238 240 240 240 241 242 244 244 245 246 245 244 245 248 251 255 259 260 260 259 256 255 255 256 257 257 257 257 257 257 258 259 260 261 262 264 266 269 272 274 276 277 278 279 281 283 285 287 289 290 291 293 295 297 297 297 297 302 307 309 311 313 316 319 322 323 324 325 325 325 326 327
233 235 235 235 235 235 235 234 235 237 238 239 240 240 240 241 242 242 244 247 248 249 251 251 251 252 253 255 258 261 262 261 258 256 256 257 257 257 257 258 259 260 260 261 262 263 263 264 265 267 269 271 273 275 276 277 278 280 282 283 285 287 288 289 290 292 294 295 295 297 302 306 307 309 312 316 318 320 321 323 323 323 324 325 327
234 234 236 237 237 238 238 238 238 240 242 243 244 243 241 241 242 243 245 247 250 252 254 256 258 260 261 262 264 265 266 265 263 260 258 258 258 257 257 257 258 260 261 262 263 263 263 264 264 266 268 270 272 273 274 276 278 279 280 282 284 285 286 287 289 291 292 293 295 299 302 304 306 309 312 315 317 319 320 321 322 322 323 324 325
234 235 236 238 239 241 241 242 242 242 243 244 245 245 243 243 244 244 246 248 250 253 256 259 261 263 265 266 267 267 268 268 267 265 264 262 261 260 259 259 259 259 261 263 263 263 263 264 266 266 267 268 270 271 272 274 276 277 279 281 281 283 285 288 289 291 292 294 296 299 301 303 306 309 312 314 315 317 319 320 320 320 321 323 324
231 233 235 237 239 241 243 245 245 244 245 245 245 246 246 246 247 248 249 251 253 255 257 259 262 264 265 266 267 267 267 266 266 266 265 264 263 262 262 261 261 260 260 262 263 263 264 265 265 266 266 266 267 268 271 274 276 277 280 280 280 282 287 290 289 290 292 295 297 299 300 303 306 309 311 312 314 316 317 318 318 319 320 321 322
229 231 233 236 239 241 243 245 246 245 245 246 246 247 248 248 249 250 251 252 254 255 257 258 260 262 263 264 265 265 264 264 263 262 262 262 262 262 262 262 262 261 261 262 265 267 267 266 265 265 266 266 268 269 272 276 278 279 281 282 282 284 287 289 289 290 293 295 296 298 300 303 306 308 309 311 313 315 316 316 316 318 319 320 320
229 231 233 235 238 240 242 244 244 244 244 245 246 247 248 248 249 249 250 251 252 253 254 255 257 258 259 260 260 260 261 261 261 260 261 261 261 261 261 261 261 261 262 263 265 266 268 269 269 270 271 271 273 273 274 276 277 278 280 282 283 284 286 288 289 291 293 295 296 298 300 303 305 307 308 310 312 314 314 315 315 317 318 319 319
231 234 235 235 236 238 239 241 242 242 242 242 243 244 245 246 246 247 247 247 248 249 250 251 252 253 254 256 257 257 258 259 260 260 260 262 264 265 264 262 260 261 262 264 264 264 265 266 268 269 270 271 272 273 273 274 275 276 277 280 282 283 286 288 290 291 293 294 296 298 300 302 304 306 308 310 312 312 313 313 314 316 317 317 317
231 234 237 237 237 237 238 238 239 240 240 240 240 242 243 243 243 244 244 245 246 247 248 249 250 252 253 255 256 257 258 258 260 260 261 262 264 265 262 259 260 262 265 266 266 266 266 267 268 269 269 270 270 270 271 273 275 276 277 279 281 283 286 288 289 291 292 294 296 298 300 302 303 305 307 309 310 311 311 312 313 315 316 316 316
230 232 236 239 240 239 239 239 239 239 239 239 239 240 241 242 243 244 245 246 246 247 248 249 251 253 254 256 257 257 258 259 260 262 262 260 258 257 257 259 263 266 267 268 269 270 270 272 272 272 270 270 270 271 273 275 277 278 278 280 282 284 286 288 289 290 292 294 296 298 299 301 303 305 307 308 309 309 310 311 313 314 315 314 314
229 228 231 236 238 240 241 241 240 240 240 240 240 241 242 243 244 244 246 248 248 249 250 251 253 254 254 255 256 258 259 260 261 263 265 265 263 263 265 267 269 271 272 273 273 273 274 275 276 275 274 273 273 274 276 278 279 279 280 281 283 284 286 287 289 290 292 294 296 298 299 300 303 305 306 307 307 307 309 310 312 313 314 314 313
229 226 227 232 235 237 241 242 242 241 241 241 241 241 242 243 245 245 247 249 251 252 253 255 256 256 256 256 258 263 264 263 261 261 265 267 269 269 270 271 272 274 275 274 272 271 272 274 275 275 276 276 276 277 278 279 279 280 280 282 283 284 286 288 289 291 293 294 295 297 298 300 303 304 305 305 305 306 308 309 311 312 312 312 312
229 226 226 230 233 236 240 242 242 242 242 241 241 241 242 243 244 246 247 249 251 253 255 256 257 258 259 260 262 265 266 266 266 268 271 271 270 269 269 271 273 273 273 272 271 272 273 275 275 275 276 276 277 278 279 279 280 280 281 283 284 286 287 288 290 291 292 293 294 296 298 301 302 303 303 303 304 305 307 308 309 310 311 311 310
231 228 229 232 235 237 241 244 244 243 243 242 242 242 242 243 244 246 247 249 251 253 255 257 258 260 262 263 262 262 264 267 273 276 276 273 271 270 271 272 273 273 272 271 272 273 274 275 277 277 277 277 277 278 279 279 280 282 283 284 285 286 287 288 289 290 291 293 295 297 299 300 301 301 301 301 303 304 306 307 307 308 309 309 308
234 233 234 237 239 241 244 247 248 247 245 244 243 243 242 243 244 246 247 249 251 253 255 257 259 261 263 264 264 264 265 269 273 275 274 272 271 272 272 273 273 272 271 271 272 273 275 277 279 279 279 279 279 279 280 281 282 283 284 285 286 287 287 288 289 290 292 294 296 298 299 299 299 299 300 301 303 304 305 305 306 306 306 306 305
238 239 241 243 244 245 248 251 253 253 250 247 245 245 244 244 245 247 249 251 253 255 257 259 261 262 264 265 266 267 269 271 274 275 275 274 273 272 272 273 272 272 271 272 273 275 276 278 278 279 279 279 280 281 281 283 284 284 285 286 286 287 287 288 289 291 293 295 296 297 297 297 297 298 300 302 303 303 304 304 304 303 303 302 302
241 243 244 245 246 247 249 252 256 258 256 251 247 246 245 245 246 247 249 251 254 257 259 261 263 266 267 267 268 269 270 272 275 276 276 276 276 276 276 276 275 275 275 276 276 277 277 278 278 278 278 278 279 280 281 283 284 284 285 286 286 287 288 289 291 292 294 295 295 295 295 295 296 298 300 301 302 302 302 303 303 302 301 300 300
241 243 244 244 245 247 249 251 254 259 259 254 249 247 247 246 246 247 249 252 255 258 260 263 265 267 269 270 272 273 274 275 276 277 278 277 277 277 277 277 277 277 278 278 278 278 278 278 278 278 278 279 279 281 282 284 284 285 286 286 287 288 289 290 291 292 292 292 292 292 292 294 296 299 300 300 300 301 301 302 302 302 301 300 299
238 242 243 244 245 248 249 250 253 257 258 254 249 246 246 247 247 249 251 254 257 260 262 265 267 269 270 271 273 275 277 278 279 279 279 279 278 278 277 277 277 278 278 278 279 279 280 280 280 281 281 282 283 284 285 285 286 286 287 287 288 289 290 290 290 290 290 290 290 291 292 294 297 298 298 298 299 299 300 300 300 300 299 299 298
234 238 242 244 246 248 250 251 252 255 256 253 248 244 244 246 248 251 254 257 260 263 266 269 271 273 274 276 277 278 279 280 280 281 281 281 281 280 280 279 280 280 280 280 281 281 281 281 281 282 283 284 285 285 286 286 286 286 287 287 288 288 288 288 288 287 288 288 289 290 292 294 295 296 296 296 297 297 297 297 297 297 297 297 297
Height
5911 5912 5914 5915 5917 5920 5922 5923 5925 5926 5928 5931 5933 5935 5936 5938 5940 5942 5943 5945 5947 5949 5950 5951 5952 5953 5954 5955 5956 5957 5958 5959 5960 5960 5961 5962 5962 5962 5962 5962 5962 5961 5961 5961 5960 5960 5960 5960 5960 5960 5960 5961 5961 5961 5962 5962 5962 5962 5963 5963 5963 5963 5963 5963 5963 5963 5963 5963 5963 5963 5963 5962 5962 5962 5962 5961 5961 5960 5959 5959 5958 5957 5956 5955 5953
5909 5910 5912 5914 5916 5918 5920 5921 5923 5925 5927 5929 5931 5933 5935 5936 5938 5940 5942 5944 5945 5947 5948 5950 5951 5952 5953 5954 5956 5957 5958 5959 5959 5960 5960 5960 5961 5961 5961 5961 5961 5961 5961 5961 5960 5960 5960 5960 5960 5960 5960 5960 5960 5960 5961 5961 5961 5961 5962 5962 5962 5962 5962 5962 5962 5962 5962 5962 5962 5962 5962 5962 5962 5962 5961 5961 5960 5960 5959 5958 5957 5955 5954 5953 5951
5906 5908 5909 5911 5913 5915 5917 5919 5921 5923 5925 5927 5929 5931 5933 5934 5936 5938 5940 5941 5943 5945 5947 5948 5949 5951 5952 5953 5955 5956 5957 5958 5958 5959 5959 5959 5960 5960 5960 5961 5961 5961 5961 5960 5960 5960 5960 5960 5960 5960 5960 5960 5960 5960 5960 5961 5961 5961 5961 5961 5961 5961 5961 5961 5961 5961 5961 5962 5962 5962 5961 5961 5961 5961 5960 5960 5959 5958 5958 5956 5955 5953 5951 5950 5948
5904 5905 5907 5909 5911 5913 5915 5917 5919 5922 5924 5926 5928 5929 5931 5933 5934 5936 5938 5939 5941 5943 5945 5946 5948 5949 5950 5952 5953 5954 5955 5956 5957 5957 5958 5958 5959 5959 5959 5960 5960 5960 5960 5960 5960 5960 5959 5959 5959 5959 5959 5959 5959 5959 5960 5960 5960 5960 5960 5961 5961 5961 5961 5961 5961 5961 5961 5961 5961 5961 5961 5961 5961 5960 5959 5959 5959 5957 5956 5955 5953 5951 5949 5947 5945
5901 5904 5905 5907 5909 5911 5913 5916 5918 5920 5922 5924 5926 5927 5929 5931 5933 5934 5936 5938 5939 5941 5943 5944 5946 5947 5948 5950 5951 5952 5954 5955 5956 5956 5957 5957 5957 5957 5958 5958 5959 5959 5959 5959 5959 5959 5959 5959 5959 5959 5959 5958 5959 5959 5959 5960 5960 5960 5960 5960 5960 5960 5960 5960 5960 5960 5960 5960 5960 5960 5960 5960 5959 5958 5957 5957 5957 5956 5954 5952 5950 5949 5947 5945 5944
5899 5901 5903 5905 5907 5909 5911 5914 5916 5919 5920 5922 5924 5925 5927 5929 5931 5933 5934 5936 5937 5939 5941 5942 5944 5945 5947 5948 5949 5950 5952 5953 5954 5955 5956 5956 5956 5956 5956 5956 5957 5957 5958 5958 5958 5958 5958 5958 5958 5958 5958 5958 5958 5958 5959 5959 5959 5959 5959 5959 5959 5959 5960 5960 5960 5960 5960 5960 5960 5959 5958 5958 5958 5957 5955 5954 5954 5953 5952 5950 5948 5946 5944 5944 5942
5897 5899 5901 5903 5905 5907 5910 5912 5914 5916 5918 5920 5922 5924 5926 5927 5929 5931 5932 5934 5936 5937 5939 5941 5942 5944 5945 5946 5948 5949 5950 5951 5953 5953 5954 5955 5955 5955 5955 5954 5955 5955 5956 5956 5957 5956 5957 5957 5957 5957 5957 5957 5958 5958 5958 5959 5959 5959 5959 5959 5959 5959 5959 5959 5960 5960 5960 5960 5959 5959 5959 5958 5957 5956 5954 5953 5951 5950 5948 5948 5947 5945 5942 5940 5937
5894 5896 5899 5901 5903 5905 5907 5909 5911 5913 5915 5917 5919 5922 5924 5925 5927 5929 5930 5932 5934 5936 5937 5939 5940 5942 5943 5944 5946 5947 5949 5950 5951 5952 5952 5953 5953 5953 5953 5953 5953 5953 5954 5954 5955 5955 5955 5955 5956 5956 5956 5956 5957 5957 5958 5958 5958 5958 5958 5958 5958 5958 5959 5959 5959 5959 5959 5959 5959 5958 5958 5957 5956 5955 5953 5952 5950 5948 5946 5945 5944 5943 5939 5935 5932
5892 5894 5897 5899 5901 5903 5904 5906 5908 5910 5913 5915 5917 5920 5922 5924 5925 5927 5929 5931 5932 5934 5935 5937 5939 5940 5941 5943 5944 5945 5947 5948 5949 5950 5950 5951 5951 5951 5951 5951 5952 5952 5952 5953 5953 5953 5954 5954 5954 5955 5955 5955 5956 5957 5957 5958 5958 5958 5958 5957 5958 5958 5958 5958 5957 5957 5957 5957 5957 5956 5956 5955 5954 5953 5951 5950 5948 5946 5944 5943 5942 5938 5933 5930 5929
5890 5892 5895 5897 5898 5899 5901 5904 5906 5908 5911 5913 5915 5918 5920 5922 5923 5925 5927 5929 5930 5932 5933 5935 5937 5938 5940 5941 5942 5944 5945 5946 5947 5947 5948 5949 5949 5950 5950 5950 5950 5950 5951 5951 5951 5952 5952 5952 5953 5953 5954 5954 5955 5955 5956 5957 5957 5957 5957 5956 5956 5956 5956 5956 5956 5956 5955 5955 5955 5954 5954 5953 5951 5950 5949 5947 5944 5943 5942 5941 5938 5934 5930 5928 5928
5888 5890 5892 5894 5895 5897 5899 5901 5903 5906 5908 5910 5913 5915 5917 5919 5921 5923 5925 5926 5928 5930 5932 5934 5935 5936 5938 5939 5941 5942 5943 5944 5945 5945 5946 5947 5947 5948 5948 5948 5948 5949 5949 5949 5950 5950 5950 5951 5951 5952 5952 5953 5953 5954 5955 5955 5955 5955 5955 5955 5955 5955 5955 5955 5955 5954 5954 5954 5953 5951 5951 5950 5949 5947 5945 5942 5940 5940 5940 5939 5934 5931 5929 5926 5926
5886 5888 5890 5891 5892 5894 5897 5899 5901 5903 5905 5908 5910 5912 5914 5917 5919 5921 5923 5925 5926 5928 5930 5932 5933 5934 5936 5937 5939 5940 5941 5941 5942 5943 5944 5945 5945 5946 5946 5946 5946 5947 5947 5947 5948 5948 5948 5949 5949 5950 5950 5951 5952 5953 5953 5953 5954 5954 5954 5953 5953 5954 5954 5954 5953 5952 5952 5951 5951 5949 5948 5946 5946 5943 5940 5938 5935 5934 5937 5937 5931 5927 5926 5923 5922
5884 5885 5887 5888 5890 5893 5895 5897 5899 5901 5903 5905 5907 5909 5912 5914 5917 5919 5921 5923 5924 5927 5928 5930 5931 5933 5934 5935 5936 5938 5938 5939 5940 5941 5942 5943 5943 5944 5944 5944 5944 5944 5945 5945 5946 5946 5947 5947 5948 5948 5949 5949 5950 5951 5951 5952 5952 5952 5952 5952 5952 5952 5952 5952 5951 5950 5950 5949 5948 5947 5945 5943 5942 5940 5936 5933 5928 5927 5932 5935 5928 5923 5920 5917 5914
5881 5882 5884 5886 5888 5890 5892 5895 5897 5898 5900 5902 5904 5907 5910 5912 5914 5916 5918 5921 5923 5925 5926 5928 5929 5931 5932 5933 5934 5935 5936 5937 5938 5939 5940 5940 5941 5941 5942 5942 5942 5942 5943 5943 5943 5944 5944 5945 5946 5947 5947 5948 5949 5949 5950 5950 5951 5951 5951 5950 5950 5950 5950 5950 5949 5947 5947 5946 5945 5945 5943 5940 5938 5935 5931 5927 5922 5920 5927 5930 5925 5919 5915 5912 5909
5877 5879 5881 5884 5886 5888 5891 5893 5894 5896 5898 5900 5903 5906 5908 5910 5912 5914 5916 5919 5921 5922 5924 5925 5927 5928 5929 5931 5932 5933 5934 5935 5936 5937 5937 5938 5939 5939 5940 5940 5940 5940 5940 5941 5941 5942 5942 5943 5944 5945 5945 5946 5947 5947 5948 5948 5948 5948 5948 5948 5948 5948 5947 5947 5946 5945 5944 5943 5942 5942 5940 5937 5934 5931 5927 5923 5918 5915 5918 5921 5920 5916 5913 5910 5907
5874 5876 5879 5882 5884 5887 5889 5890 5892 5894 5896 5899 5902 5904 5906 5908 5910 5912 5914 5916 5918 5920 5922 5923 5924 5925 5927 5928 5930 5930 5931 5932 5933 5934 5935 5935 5936 5937 5937 5937 5937 5937 5938 5938 5939 5939 5940 5941 5942 5942 5943 5944 5944 5945 5945 5946 5946 5945 5945 5945 5945 5945 5945 5944 5944 5943 5942 5940 5939 5938 5936 5933 5931 5928 5925 5922 5917 5912 5911 5912 5912 5910 5907 5905 5903
5872 5874 5877 5880 5882 5885 5887 5888 5890 5892 5895 5898 5900 5902 5904 5906 5907 5910 5912 5914 5916 5917 5919 5920 5921 5922 5924 5926 5927 5927 5928 5929 5931 5931 5932 5933 5934 5935 5935 5935 5935 5935 5935 5936 5937 5937 5938 5939 5939 5940 5941 5941 5942 5942 5943 5943 5943 5943 5942 5942 5942 5942 5942 5942 5942 5941 5939 5937 5936 5934 5932 5930 5928 5926 5924 5920 5916 5912 5909 5907 5905 5902 5899 5897 5894
5870 5872 5875 5878 5880 5882 5884 5886 5888 5891 5893 5896 5898 5899 5901 5903 5905 5907 5909 5911 5912 5914 5915 5917 5918 5920 5922 5924 5925 5925 5925 5926 5928 5929 5930 5931 5931 5932 5932 5932 5932 5932 5933 5933 5934 5935 5935 5936 5937 5938 5938 5938 5939 5940 5940 5940 5941 5940 5940 5939 5939 5939 5939 5939 5940 5939 5937 5934 5932 5931 5929 5927 5926 5925 5923 5920 5916 5912 5907 5904 5901 5898 5894 5891 5887
5868 5871 5873 5875 5877 5880 5882 5884 5886 5889 5892 5894 5895 5897 5899 5900 5902 5904 5906 5908 5910 5911 5913 5914 5916 5918 5920 5921 5922 5922 5923 5924 5925 5926 5927 5928 5929 5929 5929 5930 5930 5930 5930 5931 5932 5932 5933 5934 5934 5935 5935 5936 5936 5937 5937 5938 5938 5938 5937 5937 5936 5936 5936 5936 5937 5937 5935 5932 5930 5930 5929 5927 5925 5924 5922 5919 5915 5911 5906 5903 5900 5896 5892 5888 5884
5866 5868 5870 5872 5875 5877 5879 5882 5885 5887 5890 5891 5893 5894 5896 5898 5900 5902 5904 5905 5907 5909 5910 5912 5914 5915 5917 5918 5919 5920 5920 5921 5922 5923 5924 5925 5926 5926 5927 5928 5928 5927 5928 5929 5929 5930 5931 5931 5932 5933 5933 5933 5934 5934 5934 5935 5935 5935 5935 5934 5933 5933 5932 5932 5933 5934 5934 5932 5929 5928 5927 5925 5923 5921 5919 5916 5912 5908 5905 5901 5897 5893 5889 5885 5881
5863 5865 5867 5870 5872 5875 5877 5880 5882 5885 5887 5888 5890 5892 5894 5896 5898 5900 5901 5903 5904 5906 5908 5909 5911 5912 5913 5915 5916 5917 5917 5918 5919 5920 5921 5922 5923 5924 5925 5925 5925 5925 5926 5927 5927 5928 5928 5929 5929 5930 5931 5931 5931 5931 5931 5932 5932 5932 5932 5932 5931 5930 5929 5929 5928 5929 5930 5930 5928 5926 5925 5923 5920 5917 5915 5912 5908 5905 5901 5898 5894 5890 5886 5881 5877
5860 5863 5866 5868 5871 5873 5876 5878 5880 5882 5884 5886 5888 5890 5892 5894 5896 5897 5899 5900 5902 5904 5905 5907 5908 5909 5910 5912 5913 5914 5914 5915 5915 5916 5917 5919 5920 5921 5922 5922 5922 5923 5924 5924 5925 5925 5925 5926 5927 5927 5928 5928 5928 5928 5929 5929 5929 5930 5930 5929 5928 5927 5926 5925 5924 5923 5924 5924 5924 5922 5921 5919 5916 5913 5911 5908 5904 5901 5898 5895 5891 5886 5882 5878 5873
5859 5861 5864 5867 5869 5871 5874 5876 5878 5880 5882 5885 5887 5888 5890 5892 5894 5895 5897 5898 5900 5901 5903 5904 5905 5906 5907 5908 5910 5910 5911 5912 5912 5913 5914 5915 5916 5918 5919 5919 5919 5920 5921 5922 5922 5922 5922 5923 5924 5924 5925 5925 5926 5926 5926 5926 5926 5926 5926 5926 5925 5924 5923 5922 5920 5919 5918 5918 5918 5917 5915 5913 5911 5909 5906 5903 5900 5897 5894 5891 5887 5883 5879 5875 5869
5858 5860 5863 5865 5867 5870 5872 5874 5876 5878 5880 5882 5884 5886 5888 5890 5892 5893 5895 5896 5898 5899 5900 5901 5903 5904 5905 5905 5906 5907 5908 5909 5910 5910 5911 5912 5913 5914 5915 5916 5916 5917 5918 5919 5919 5919 5920 5920 5921 5921 5922 5922 5922 5923 5923 5923 5923 5923 5922 5922 5922 5921 5919 5918 5917 5916 5915 5914 5913 5911 5909 5907 5905 5903 5900 5897 5895 5892 5889 5886 5882 5879 5875 5871 5866
5857 5859 5861 5863 5865 5867 5869 5871 5874 5876 5878 5880 5882 5884 5886 5888 5889 5891 5892 5894 5895 5896 5898 5899 5900 5901 5902 5902 5903 5903 5904 5905 5906 5907 5907 5908 5910 5911 5912 5913 5913 5914 5915 5916 5916 5916 5917 5917 5917 5918 5918 5919 5919 5919 5919 5919 5919 5919 5919 5919 5918 5917 5915 5914 5913 5912 5911 5909 5908 5906 5904 5902 5900 5897 5895 5892 5889 5886 5883 5880 5878 5874 5870 5867 5863
5855 5857 5859 5861 5863 5865 5867 5869 5871 5873 5875 5877 5879 5881 5883 5885 5886 5888 5889 5891 5892 5893 5895 5896 5897 5898 5899 5899 5899 5900 5901 5902 5903 5904 5904 5905 5906 5908 5909 5909 5910 5911 5912 5912 5912 5913 5913 5913 5914 5914 5915 5915 5916 5916 5916 5916 5916 5915 5915 5915 5914 5913 5912 5911 5910 5908 5907 5905 5904 5902 5900 5897 5895 5892 5889 5887 5884 5881 5878 5875 5872 5869 5865 5862 5859
5852 5854 5857 5859 5860 5862 5864 5866 5868 5870 5872 5874 5876 5878 5880 5882 5884 5885 5887 5888 5889 5891 5892 5893 5894 5895 5895 5896 5896 5897 5898 5899 5899 5900 5901 5902 5903 5904 5905 5906 5907 5908 5909 5909 5909 5909 5909 5910 5910 5911 5912 5912 5912 5912 5912 5912 5912 5912 5911 5911 5910 5909 5908 5907 5905 5904 5902 5901 5900 5898 5896 5893 5891 5888 5885 5882 5879 5876 5873 5869 5866 5863 5860 5857 5854
5849 5851 5853 5855 5858 5860 5862 5863 5865 5867 5869 5871 5873 5875 5877 5879 5881 5882 5884 5885 5886 5888 5889 5890 5891 5892 5892 5893 5893 5894 5895 5895 5896 5896 5897 5898 5899 5900 5902 5903 5903 5904 5905 5905 5905 5906 5906 5907 5907 5908 5908 5909 5909 5908 5908 5908 5908 5907 5907 5906 5906 5905 5904 5902 5901 5899 5898 5897 5895 5894 5891 5888 5886 5883 5880 5877 5874 5871 5868 5865 5861 5858 5855 5851 5848
5845 5847 5849 5852 5854 5857 5858 5860 5862 5863 5865 5868 5869 5871 5873 5875 5877 5879 5880 5882 5883 5884 5886 5887 5888 5888 5889 5889 5890 5891 5892 5892 5892 5893 5893 5894 5896 5897 5898 5899 5899 5900 5900 5901 5901 5902 5903 5903 5904 5904 5904 5904 5904 5904 5904 5903 5903 5903 5903 5902 5901 5900 5899 5897 5896 5895 5894 5893 5891 5889 5887 5884 5881 5878 5876 5873 5870 5866 5863 5860 5857 5853 5850 5846 5842
5841 5842 5845 5847 5850 5853 5855 5857 5858 5860 5862 5864 5866 5868 5869 5871 5873 5875 5877 5878 5880 5881 5882 5884 5884 5884 5885 5887 5887 5888 5889 5889 5889 5889 5890 5891 5891 5892 5893 5893 5894 5895 5896 5896 5897 5898 5899 5900 5900 5900 5900 5900 5900 5899 5899 5899 5899 5898 5898 5897 5897 5896 5894 5893 5891 5890 5889 5888 5886 5884 5882 5879 5876 5874 5871 5868 5865 5861 5858 5855 5852 5849 5845 5842 5838
5837 5839 5841 5843 5846 5848 5851 5853 5855 5857 5858 5860 5862 5864 5865 5867 5869 5871 5872 5874 5875 5877 5878 5880 5881 5881 5883 5884 5884 5885 5885 5886 5886 5886 5887 5887 5887 5887 5888 5888 5889 5890 5891 5892 5893 5894 5895 5895 5896 5896 5896 5895 5895 5895 5894 5894 5894 5894 5893 5893 5892 5891 5889 5888 5886 5885 5884 5882 5881 5879 5876 5874 5871 5868 5866 5863 5860 5857 5853 5850 5847 5843 5840 5837 5833
5834 5836 5838 5840 5842 5845 5847 5849 5851 5853 5855 5857 5858 5860 5861 5863 5865 5866 5868 5869 5871 5872 5874 5876 5877 5878 5879 5880 5881 5881 5882 5882 5882 5883 5883 5883 5883 5884 5884 5884 5885 5886 5886 5887 5888 5889 5890 5891 5891 5891 5891 5891 5891 5890 5890 5890 5890 5889 5888 5888 5887 5886 5884 5883 5881 5880 5879 5877 5875 5873 5871 5868 5866 5863 5861 5858 5855 5852 5848 5845 5842 5838 5835 5831 5827
5830 5832 5834 5836 5838 5840 5842 5845 5847 5849 5851 5853 5855 5856 5858 5859 5861 5862 5863 5864 5866 5867 5869 5871 5872 5874 5875 5876 5877 5877 5878 5878 5879 5879 5879 5880 5880 5880 5880 5881 5881 5882 5882 5883 5884 5885 5885 5886 5886 5886 5886 5886 5886 5886 5886 5885 5885 5884 5883 5883 5882 5880 5879 5878 5876 5875 5873 5872 5870 5868 5866 5863 5860 5858 5856 5853 5850 5847 5844 5840 5837 5833 5830 5826 5822
5825 5827 5829 5831 5833 5835 5837 5840 5842 5844 5846 5848 5850 5852 5853 5855 5857 5858 5859 5860 5861 5863 5864 5865 5867 5868 5870 5871 5872 5872 5873 5873 5874 5875 5875 5875 5875 5876 5876 5876 5877 5878 5879 5879 5880 5880 5880 5881 5881 5882 5882 5881 5881 5881 5881 5880 5880 5879 5878 5877 5876 5875 5873 5872 5871 5869 5868 5866 5864 5862 5860 5858 5855 5853 5850 5847 5844 5842 5839 5836 5833 5829 5825 5821 5817
5821 5823 5825 5827 5828 5830 5832 5834 5836 5839 5841 5843 5845 5847 5849 5850 5852 5853 5854 5855 5857 5858 5860 5861 5862 5863 5864 5865 5866 5867 5867 5868 5869 5869 5870 5870 5870 5871 5871 5871 5872 5874 5874 5875 5875 5875 5875 5876 5876 5876 5877 5876 5876 5876 5875 5875 5874 5873 5873 5871 5870 5869 5867 5866 5865 5863 5861 5859 5858 5856 5854 5851 5850 5847 5845 5842 5839 5836 5833 5830 5828 5824 5821 5816 5812
5817 5819 5820 5822 5824 5825 5827 5829 5831 5833 5835 5837 5839 5841 5843 5845 5847 5848 5850 5851 5852 5854 5855 5857 5858 5858 5859 5860 5861 5862 5862 5862 5863 5863 5863 5864 5864 5864 5864 5865 5867 5868 5869 5869 5868 5868 5870 5871 5872 5871 5871 5871 5870 5870 5869 5868 5868 5867 5866 5865 5864 5863 5861 5860 5858 5856 5855 5853 5851 5849 5847 5845 5843 5841 5838 5836 5833 5830 5827 5825 5822 5819 5815 5811 5808
5813 5814 5816 5818 5820 5821 5823 5824 5826 5828 5830 5832 5834 5836 5838 5840 5841 5843 5844 5846 5847 5849 5850 5851 5852 5853 5854 5854 5855 5856 5856 5856 5856 5857 5857 5857 5857 5857 5858 5859 5861 5863 5864 5863 5862 5862 5863 5865 5865 5864 5864 5863 5863 5863 5863 5863 5862 5861 5860 5858 5857 5856 5855 5853 5851 5850 5848 5846 5845 5843 5841 5839 5837 5835 5832 5830 5827 5824 5821 5819 5815 5812 5809 5806 5802
5809 5810 5812 5814 5816 5817 5819 5820 5822 5824 5825 5827 5829 5831 5833 5834 5836 5837 5839 5840 5842 5843 5844 5845 5846 5847 5848 5848 5849 5849 5849 5849 5849 5849 5850 5850 5851 5851 5851 5852 5854 5856 5858 5859 5859 5858 5857 5857 5858 5857 5856 5856 5856 5857 5857 5856 5855 5854 5853 5851 5850 5849 5847 5846 5845 5843 5841 5839 5838 5836 5834 5832 5830 5828 5826 5823 5821 5818 5815 5812 5809 5806 5803 5800 5797
5804 5806 5807 5809 5811 5813 5814 5816 5818 5819 5821 5823 5824 5826 5828 5829 5830 5832 5833 5834 5836 5837 5839 5840 5841 5841 5841 5842 5842 5843 5843 5843 5842 5842 5844 5845 5845 5846 5847 5847 5848 5850 5852 5853 5853 5853 5852 5852 5852 5851 5851 5850 5850 5850 5849 5848 5847 5846 5845 5844 5843 5842 5841 5840 5838 5837 5835 5833 5831 5829 5828 5826 5824 5822 5819 5817 5814 5811 5809 5806 5803 5799 5796 5793 5791
5800 5801 5803 5805 5807 5808 5810 5812 5813 5815 5817 5818 5820 5821 5822 5823 5825 5827 5828 5829 5831 5833 5834 5834 5835 5835 5836 5836 5837 5837 5837 5837 5836 5835 5837 5840 5840 5841 5842 5842 5843 5843 5843 5844 5844 5845 5845 5845 5845 5845 5844 5844 5843 5842 5842 5841 5840 5839 5838 5837 5836 5835 5834 5833 5832 5830 5828 5826 5824 5823 5821 5819 5817 5815 5812 5810 5807 5805 5802 5799 5796 5793 5790 5787 5784
5795 5797 5799 5800 5802 5804 5805 5807 5809 5810 5812 5814 5815 5816 5817 5819 5820 5822 5824 5825 5826 5828 5828 5828 5829 5830 5831 5832 5832 5832 5832 5832 5831 5830 5831 5834 5835 5836 5837 5838 5838 5837 5837 5836 5837 5837 5838 5838 5838 5837 5837 5836 5836 5835 5834 5833 5832 5832 5831 5830 5830 5829 5828 5826 5825 5823 5821 5820 5818 5816 5814 5812 5810 5807 5805 5802 5800 5798 5795 5792 5788 5785 5783 5780 5777
5790 5792 5794 5796 5797 5799 5801 5802 5804 5806 5807 5809 5810 5812 5813 5814 5816 5817 5819 5820 5821 5822 5823 5824 5825 5825 5825 5826 5827 5827 5827 5827 5826 5825 5826 5827 5829 5831 5832 5833 5832 5832 5831 5831 5830 5830 5830 5830 5830 5829 5829 5829 5829 5828 5827 5826 5826 5825 5825 5824 5823 5822 5821 5819 5818 5816 5814 5812 5810 5808 5806 5804 5802 5800 5797 5795 5793 5790 5788 5785 5781 5778 5776 5773 5770
5785 5787 5789 5791 5793 5794 5796 5797 5799 5801 5803 5804 5806 5807 5808 5809 5811 5812 5814 5815 5816 5817 5818 5819 5820 5820 5820 5821 5823 5822 5821 5821 5822 5823 5823 5824 5824 5825 5825 5826 5826 5826 5825 5825 5824 5824 5824 5824 5823 5823 5822 5822 5821 5821 5820 5820 5819 5819 5818 5818 5817 5815 5814 5812 5810 5809 5807 5805 5803 5801 5799 5796 5794 5792 5789 5787 5785 5782 5780 5777 5774 5772 5769 5766 5763
5780 5782 5784 5786 5788 5790 5791 5793 5794 5796 5797 5799 5800 5801 5803 5804 5805 5807 5809 5810 5811 5812 5813 5813 5814 5813 5814 5817 5819 5818 5816 5816 5817 5819 5820 5820 5820 5820 5819 5819 5820 5820 5820 5820 5820 5819 5819 5818 5818 5817 5816 5816 5815 5815 5814 5814 5813 5812 5812 5811 5810 5808 5807 5805 5803 5801 5799 5797 5795 5793 5791 5788 5786 5784 5782 5779 5777 5774 5772 5769 5767 5765 5762 5759 5757
5774 5777 5779 5780 5782 5784 5786 5788 5789 5791 5792 5794 5795 5796 5797 5798 5800 5802 5803 5805 5806 5807 5807 5807 5808 5807 5808 5810 5812 5812 5811 5810 5811 5812 5814 5814 5814 5814 5814 5814 5814 5814 5814 5814 5814 5813 5813 5812 5812 5811 5810 5810 5809 5809 5808 5807 5807 5806 5805 5804 5802 5801 5799 5797 5795 5793 5792 5790 5788 5785 5783 5780 5778 5776 5773 5771 5769 5766 5764 5761 5759 5757 5755 5752 5750
5769 5771 5773 5775 5777 5779 5781 5782 5784 5785 5787 5788 5789 5790 5792 5793 5794 5796 5797 5799 5800 5801 5801 5802 5802 5803 5803 5804 5805 5806 5805 5805 5805 5807 5808 5808 5808 5808 5808 5808 5808 5808 5807 5807 5807 5806 5806 5805 5805 5804 5804 5803 5802 5802 5801 5800 5799 5798 5797 5796 5794 5792 5791 5789 5787 5785 5784 5781 5779 5777 5775 5772 5770 5767 5765 5762 5760 5758 5755 5753 5751 5749 5747 5745 5742
5763 5765 5767 5769 5771 5773 5775 5777 5778 5780 5781 5782 5784 5785 5786 5787 5788 5790 5791 5793 5794 5795 5795 5796 5796 5797 5798 5799 5799 5800 5800 5800 5800 5801 5801 5802 5802 5802 5801 5801 5801 5800 5800 5800 5800 5800 5799 5799 5798 5797 5797 5796 5795 5794 5793 5792 5791 5790 5789 5787 5785 5784 5782 5780 5778 5777 5775 5773 5771 5768 5766 5763 5761 5759 5756 5754 5751 5749 5747 5744 5742 5740 5738 5736 5734
5757 5759 5761 5763 5765 5767 5769 5771 5772 5773 5775 5776 5777 5779 5780 5781 5783 5784 5785 5786 5788 5788 5789 5790 5790 5791 5791 5792 5793 5793 5793 5794 5794 5794 5795 5795 5795 5795 5795 5794 5794 5794 5793 5793 5793 5792 5792 5791 5790 5790 5789 5788 5787 5786 5785 5784 5783 5781 5780 5778 5776 5774 5773 5771 5769 5767 5765 5763 5761 5759 5757 5754 5752 5750 5748 5745 5743 5740 5738 5735 5733 5731 5729 5728 5726
5750 5753 5755 5757 5759 5761 5763 5765 5766 5767 5769 5770 5771 5773 5774 5775 5777 5778 5779 5780 5781 5782 5783 5783 5784 5785 5785 5785 5785 5786 5786 5786 5786 5787 5788 5788 5788 5788 5787 5787 5787 5786 5786 5785 5784 5784 5783 5783 5782 5781 5781 5780 5779 5777 5776 5775 5774 5772 5770 5768 5767 5765 5763 5761 5759 5757 5756 5754 5752 5749 5747 5745 5743 5741 5738 5736 5733 5731 5729 5727 5724 5723 5721 5719 5718
5743 5746 5748 5751 5753 5755 5757 5758 5760 5762 5763 5764 5765 5766 5768 5769 5771 5772 5773 5773 5774 5775 5776 5776 5777 5777 5778 5778 5779 5779 5779 5779 5778 5779 5779 5779 5779 5779 5779 5778 5778 5778 5777 5776 5776 5775 5774 5773 5773 5772 5771 5770 5769 5768 5766 5765 5763 5762 5760 5758 5757 5755 5753 5751 5749 5747 5746 5744 5742 5740 5738 5736 5734 5732 5729 5726 5724 5723 5721 5719 5717 5715 5713 5711 5709
5735 5739 5742 5745 5747 5749 5751 5752 5754 5756 5757 5758 5759 5760 5762 5763 5765 5765 5766 5767 5768 5768 5769 5769 5770 5770 5770 5771 5771 5771 5771 5771 5770 5770 5770 5770 5770 5769 5769 5768 5768 5768 5768 5767 5766 5765 5764 5763 5762 5761 5760 5759 5758 5757 5756 5754 5753 5751 5749 5748 5746 5745 5743 5741 5739 5737 5736 5734 5732 5730 5728 5726 5724 5722 5720 5717 5716 5714 5713 5711 5709 5707 5705 5703 5701